Location: Béaulencourt
(50.0796°N, 2.8795°E)
Time: 22:14:04
(UTC+00:00)

Cosmos 2228 Rocket - Pass Details

Date: 20 January 2026
Orbit: 611 x 647 km, 82.5° (Epoch: 7 February)

Event Time Altitude Azimuth Distance (km) Brightness Sun altitude
Exits shadow 05:47:21 - 348° (NNW) 2,463 5.9 -17.2°
Reaches altitude 10° 05:48:32 10° 347° (NNW) 1,984 5.4 -17.0°
Maximum altitude 05:52:55 78° 262° (W) 633 2.9 -16.3°
Drops below altitude 10° 05:57:15 10° 177° (S) 1,965 5.8 -15.6°
Sets 05:59:27 0° 176° (S) 2,866 6.7 -15.3°
